• în România
  • Lista ţărilor
  • Pe 7 zile
  • Temperatura apei
  • Hartă satelitară
  • Meteo pe hartă
  • Widget-uri
  • user-avatar
    Intrare

    Meteo pe oră la Malanje

    Astăzi, 27 Aprilie, Joi

    Timp Temperatura Precipitaţii Vânt Presiune Umiditate
    00:00 +19°C° 0 mm 1 m/s 665 mmHg 95%
    01:00 +19°C° 0 mm 1 m/s 665 mmHg 95%
    02:00 +19°C° 0 mm 1 m/s 665 mmHg 95%
    03:00 +19°C° 0 mm 1 m/s 665 mmHg 95%
    04:00 +19°C° 0 mm 1 m/s 665 mmHg 95%
    05:00 +19°C° 0 mm 2 m/s 665 mmHg 93%
    06:00 +19°C° 0 mm 2 m/s 665 mmHg 92%
    07:00 +20°C° 0 mm 2 m/s 666 mmHg 91%
    08:00 +22°C° 0 mm 3 m/s 666 mmHg 83%
    09:00 +25°C° 0 mm 4 m/s 667 mmHg 75%
    10:00 +27°C° 0 mm 5 m/s 668 mmHg 67%
    11:00 +28°C° 0,2 mm 5 m/s 667 mmHg 65%
    12:00 +28°C° 0,2 mm 5 m/s 667 mmHg 63%
    13:00 +29°C° 0,2 mm 5 m/s 667 mmHg 60%
    14:00 +29°C° 0,1 mm 4 m/s 666 mmHg 62%
    15:00 +28°C° 0,1 mm 3 m/s 666 mmHg 64%
    16:00 +28°C° 0,1 mm 3 m/s 665 mmHg 67%
    17:00 +26°C° 0,1 mm 3 m/s 665 mmHg 73%
    18:00 +24°C° 0,1 mm 2 m/s 665 mmHg 80%
    19:00 +23°C° 0,1 mm 2 m/s 665 mmHg 87%
    20:00 +21°C° 1,1 mm 2 m/s 665 mmHg 89%
    21:00 +20°C° 1,1 mm 2 m/s 665 mmHg 91%
    22:00 +21°C° 1,1 mm 1 m/s 666 mmHg 94%
    23:00 +21°C° 1,4 mm 1 m/s 666 mmHg 93%

    Mâine, 28 Aprilie, Vineri

    Timp Temperatura Precipitaţii Vânt Presiune Umiditate
    00:00 +20°C° 1,4 mm 1 m/s 666 mmHg 93%
    01:00 +20°C° 1,4 mm 1 m/s 666 mmHg 93%
    02:00 +20°C° 1,2 mm 1 m/s 665 mmHg 93%
    03:00 +20°C° 1,2 mm 1 m/s 665 mmHg 94%
    04:00 +20°C° 1,2 mm 1 m/s 665 mmHg 94%
    05:00 +19°C° 0,6 mm 2 m/s 666 mmHg 93%
    06:00 +19°C° 0,6 mm 2 m/s 666 mmHg 93%
    07:00 +20°C° 0,6 mm 2 m/s 667 mmHg 92%
    08:00 +22°C° 0 mm 3 m/s 667 mmHg 84%
    09:00 +24°C° 0 mm 3 m/s 668 mmHg 77%
    10:00 +26°C° 0 mm 4 m/s 668 mmHg 69%
    11:00 +27°C° 0,2 mm 4 m/s 668 mmHg 66%
    12:00 +28°C° 0,2 mm 4 m/s 667 mmHg 64%
    13:00 +29°C° 0,2 mm 4 m/s 667 mmHg 62%
    14:00 +28°C° 0,1 mm 3 m/s 666 mmHg 63%
    15:00 +28°C° 0,1 mm 3 m/s 665 mmHg 65%
    16:00 +28°C° 0,1 mm 3 m/s 665 mmHg 66%
    17:00 +26°C° 0 mm 2 m/s 665 mmHg 73%
    18:00 +24°C° 0 mm 2 m/s 665 mmHg 79%
    19:00 +22°C° 0 mm 1 m/s 665 mmHg 86%
    20:00 +22°C° 0,1 mm 1 m/s 665 mmHg 87%
    21:00 +21°C° 0,1 mm 1 m/s 666 mmHg 88%
    22:00 +21°C° 0,1 mm 1 m/s 667 mmHg 90%
    23:00 +20°C° 0,1 mm 1 m/s 666 mmHg 90%

    Poimâine, 29 Aprilie, Sâmbătă

    Timp Temperatura Precipitaţii Vânt Presiune Umiditate
    00:00 +20°C° 0,1 mm 1 m/s 666 mmHg 91%
    01:00 +20°C° 0,1 mm 1 m/s 666 mmHg 92%
    02:00 +20°C° 0,3 mm 1 m/s 666 mmHg 92%
    03:00 +19°C° 0,3 mm 1 m/s 666 mmHg 93%
    04:00 +18°C° 0,3 mm 2 m/s 665 mmHg 93%
    05:00 +19°C° 0,1 mm 2 m/s 666 mmHg 92%
    06:00 +19°C° 0,1 mm 2 m/s 667 mmHg 91%
    07:00 +19°C° 0,1 mm 2 m/s 667 mmHg 89%
    08:00 +21°C° 0 mm 3 m/s 668 mmHg 81%
    09:00 +24°C° 0 mm 3 m/s 669 mmHg 73%
    10:00 +26°C° 0 mm 4 m/s 669 mmHg 65%
    11:00 +27°C° 0 mm 4 m/s 669 mmHg 61%
    12:00 +28°C° 0 mm 4 m/s 668 mmHg 58%
    13:00 +29°C° 0 mm 4 m/s 667 mmHg 54%
    14:00 +29°C° 0 mm 3 m/s 667 mmHg 56%
    15:00 +29°C° 0 mm 3 m/s 666 mmHg 57%
    16:00 +29°C° 0 mm 2 m/s 666 mmHg 58%
    17:00 +26°C° 0 mm 2 m/s 665 mmHg 66%
    18:00 +24°C° 0 mm 2 m/s 665 mmHg 73%
    19:00 +21°C° 0 mm 1 m/s 665 mmHg 81%
    20:00 +21°C° 0 mm 1 m/s 665 mmHg 81%
    21:00 +21°C° 0 mm 1 m/s 666 mmHg 82%
    22:00 +20°C° 0 mm 1 m/s 666 mmHg 82%
    23:00 +20°C° 0 mm 1 m/s 666 mmHg 83%

    30 Aprilie, Duminică

    Timp Temperatura Precipitaţii Vânt Presiune Umiditate
    00:00 +20°C° 0 mm 1 m/s 665 mmHg 83%
    01:00 +19°C° 0 mm 1 m/s 665 mmHg 84%
    02:00 +19°C° 0 mm 1 m/s 665 mmHg 83%
    03:00 +18°C° 0 mm 2 m/s 665 mmHg 83%
    04:00 +18°C° 0 mm 2 m/s 665 mmHg 82%
    05:00 +18°C° 0 mm 2 m/s 665 mmHg 82%
    06:00 +19°C° 0 mm 2 m/s 666 mmHg 82%
    07:00 +19°C° 0 mm 2 m/s 667 mmHg 82%
    08:00 +21°C° 0 mm 3 m/s 667 mmHg 73%
    09:00 +23°C° 0 mm 4 m/s 668 mmHg 65%
    10:00 +26°C° 0 mm 5 m/s 668 mmHg 56%
    11:00 +27°C° 0 mm 4 m/s 668 mmHg 52%
    12:00 +28°C° 0 mm 4 m/s 667 mmHg 48%
    13:00 +29°C° 0 mm 4 m/s 667 mmHg 44%
    14:00 +29°C° 0 mm 3 m/s 666 mmHg 47%
    15:00 +29°C° 0 mm 3 m/s 666 mmHg 50%
    16:00 +28°C° 0 mm 2 m/s 665 mmHg 53%
    17:00 +26°C° 0 mm 2 m/s 665 mmHg 57%
    18:00 +23°C° 0 mm 2 m/s 665 mmHg 61%
    19:00 +20°C° 0 mm 2 m/s 665 mmHg 65%
    20:00 +19°C° 0 mm 2 m/s 665 mmHg 66%
    21:00 +19°C° 0 mm 2 m/s 666 mmHg 67%
    22:00 +18°C° 0 mm 2 m/s 666 mmHg 69%
    23:00 +18°C° 0 mm 2 m/s 666 mmHg 69%

    1 Mai, Luni

    Timp Temperatura Precipitaţii Vânt Presiune Umiditate
    00:00 +18°C° 0 mm 2 m/s 666 mmHg 69%
    01:00 +18°C° 0 mm 2 m/s 665 mmHg 69%
    02:00 +18°C° 0 mm 2 m/s 665 mmHg 70%
    03:00 +17°C° 0 mm 2 m/s 665 mmHg 72%
    04:00 +17°C° 0 mm 2 m/s 665 mmHg 73%
    05:00 +17°C° 0 mm 3 m/s 665 mmHg 74%
    06:00 +17°C° 0 mm 3 m/s 666 mmHg 76%
    07:00 +17°C° 0 mm 3 m/s 666 mmHg 77%
    08:00 +20°C° 0 mm 4 m/s 667 mmHg 68%
    09:00 +22°C° 0 mm 4 m/s 667 mmHg 60%
    10:00 +26°C° 0 mm 5 m/s 668 mmHg 51%
    11:00 +26°C° 0 mm 5 m/s 667 mmHg 49%
    12:00 +27°C° 0 mm 4 m/s 667 mmHg 46%
    13:00 +28°C° 0 mm 3 m/s 666 mmHg 44%
    14:00 +28°C° 0 mm 3 m/s 666 mmHg 45%
    15:00 +28°C° 0 mm 2 m/s 666 mmHg 47%
    16:00 +28°C° 0 mm 2 m/s 665 mmHg 49%
    17:00 +25°C° 0 mm 1 m/s 665 mmHg 58%
    18:00 +22°C° 0 mm 1 m/s 665 mmHg 66%
    19:00 +19°C° 0 mm 1 m/s 664 mmHg 75%
    20:00 +18°C° 0 mm 1 m/s 665 mmHg 75%
    21:00 +18°C° 0 mm 1 m/s 665 mmHg 75%
    22:00 +18°C° 0 mm 1 m/s 665 mmHg 75%
    23:00 +16°C° 0 mm 1 m/s 665 mmHg 76%

    2 Mai, Marţi

    Timp Temperatura Precipitaţii Vânt Presiune Umiditate
    00:00 +16°C° 0 mm 1 m/s 665 mmHg 77%
    01:00 +16°C° 0 mm 1 m/s 664 mmHg 77%
    02:00 +16°C° 0 mm 1 m/s 664 mmHg 76%
    03:00 +16°C° 0 mm 2 m/s 664 mmHg 74%
    04:00 +16°C° 0 mm 2 m/s 665 mmHg 72%
    05:00 +16°C° 0 mm 2 m/s 665 mmHg 73%
    06:00 +16°C° 0 mm 2 m/s 666 mmHg 74%
    07:00 +16°C° 0 mm 3 m/s 666 mmHg 75%
    08:00 +19°C° 0 mm 3 m/s 667 mmHg 68%
    09:00 +22°C° 0 mm 4 m/s 667 mmHg 61%
    10:00 +25°C° 0 mm 5 m/s 667 mmHg 54%
    11:00 +26°C° 0 mm 4 m/s 667 mmHg 52%
    12:00 +27°C° 0 mm 4 m/s 666 mmHg 49%
    13:00 +28°C° 0 mm 4 m/s 666 mmHg 47%
    14:00 +28°C° 0 mm 3 m/s 665 mmHg 49%
    15:00 +28°C° 0 mm 3 m/s 665 mmHg 50%
    16:00 +28°C° 0 mm 2 m/s 665 mmHg 52%
    17:00 +25°C° 0 mm 2 m/s 664 mmHg 62%
    18:00 +22°C° 0 mm 1 m/s 664 mmHg 71%
    19:00 +19°C° 0 mm 1 m/s 664 mmHg 81%
    20:00 +19°C° 0 mm 1 m/s 664 mmHg 81%
    21:00 +18°C° 0 mm 1 m/s 664 mmHg 81%
    22:00 +18°C° 0 mm 1 m/s 665 mmHg 81%
    23:00 +18°C° 0 mm 1 m/s 664 mmHg 81%
    Arată mai mult